Westminster, MD

10:20 PM EDT on August 23, 2016 (GMT -0400)
Carroll County Regional-Poage

Weather History for KDMW - October, 2011

Change the Weather History Date:

Tuesday, October 4, 2011

  Actual Average (KTHV) Record (KTHV)
Temperature  
Mean Temperature 55 °F -  
Max Temperature 66 °F 0 °F 86 °F (2007)
Min Temperature 44 °F - 37 °F (2014)
Degree Days  
Heating Degree Days 10    
Growing Degree Days 5 (Base 50)    
Moisture  
Dew Point 49 °F    
Average Humidity 77    
Maximum Humidity 94    
Minimum Humidity 57    
Precipitation  
Precipitation 0.01 in - - ()
Sea Level Pressure  
Sea Level Pressure 30.12 in    
Wind  
Wind Speed 4 mph (WNW)    
Max Wind Speed 12 mph    
Max Gust Speed 21 mph    
Visibility 7 miles    
Events Fog , Rain    
Averages and records for this station are not official NWS values.
T = Trace of Precipitation, MM = Missing Value Source: NWS Daily Summary

Daily Weather History Graph

Daily Weather History Graph

Search for Another Location

Airport or City:

Trip Planner

Search our weather history database for the weather conditions in past years. The results will help you decide how hot, cold, wet, or windy it might be!

Date:

Astronomy

Oct. 04, 2011 Rise Set
Actual Time 7:06 AM EDT 6:46 PM EDT
Civil Twilight 6:39 AM EDT 7:12 PM EDT
Nautical Twilight 6:08 AM EDT 7:44 PM EDT
Astronomical Twilight 5:37 AM EDT 8:15 PM EDT
Moon 2:45 PM EDT (10/4) No Moon Set
Length of Visible Light 12h 33m
Length of Day
11h 39m
First Quarter, 56% of the Moon is Illuminated
Oct 4
First Quarter
Oct 11
Full
Oct 19
Last Quarter
Oct 26
New
Nov 2
First Quarter

Hourly Weather History & Observations

Time (EDT) Temp. Windchill Dew Point Humidity Pressure Visibility Wind Dir Wind Speed Gust Speed Precip Events Conditions
12:16 AM 48.2 °F - 44.6 °F 87% 30.10 in 7.0 mi WSW 3.5 mph - N/A   Drizzle
12:37 AM - - - N/A% 30.10 in 7.0 mi Calm Calm - N/A   Drizzle
12:58 AM 48.2 °F - 44.6 °F 87% 30.10 in 4.0 mi Calm Calm - N/A Rain Light Rain
1:40 AM 48.2 °F - 46.4 °F 93% 30.09 in 5.0 mi WNW 3.5 mph - 0.01 in Rain Light Rain
2:01 AM 48.2 °F - 46.4 °F 93% 30.09 in 5.0 mi Calm Calm - N/A   Overcast
2:22 AM 48.2 °F - 46.4 °F 93% 30.08 in 5.0 mi Calm Calm - N/A Rain Light Rain
2:43 AM - - - N/A% 30.08 in 5.0 mi Calm Calm - N/A Rain Light Rain
3:04 AM 48.2 °F - 44.6 °F 87% 30.08 in 4.0 mi Calm Calm - N/A   Overcast
3:28 AM 46.4 °F 45.2 °F 32.0 °F 57% 30.08 in 3.0 mi WNW 3.5 mph - N/A   Scattered Clouds
4:10 AM 46.4 °F 45.2 °F 44.6 °F 93% 30.08 in 3.0 mi West 3.5 mph - N/A   Scattered Clouds
4:31 AM 46.4 °F - 44.6 °F 93% 30.08 in 0.8 mi Calm Calm - N/A   Overcast
4:49 AM 46.4 °F - 44.6 °F 93% 30.09 in 0.5 mi Calm Calm - N/A Fog Fog
5:13 AM - - - N/A% 30.09 in 0.8 mi Calm Calm - N/A   Overcast
5:34 AM 46.4 °F - 44.6 °F 93% 30.10 in 0.5 mi Calm Calm - N/A Fog Fog
5:55 AM - - - N/A% 30.10 in 0.2 mi Calm Calm - N/A Fog Fog
6:16 AM 44.6 °F - 42.8 °F 93% 30.10 in 0.2 mi Calm Calm - N/A Fog Fog
6:40 AM 44.6 °F - 42.8 °F 93% 30.10 in 0.2 mi Calm Calm - N/A Fog Fog
7:01 AM 46.4 °F - 42.8 °F 87% 30.12 in 0.5 mi Calm Calm - N/A Fog Fog
8:04 AM 46.4 °F 45.2 °F 44.6 °F 93% 30.13 in 2.0 mi WSW 3.5 mph - N/A   Overcast
8:25 AM 48.2 °F - 46.4 °F 93% 30.14 in 10.0 mi NW 4.6 mph - N/A   Overcast
8:43 AM 48.2 °F - 46.4 °F 93% 30.14 in 10.0 mi West 4.6 mph - N/A   Overcast
9:07 AM 50.0 °F - 48.2 °F 94% 30.14 in 10.0 mi WNW 6.9 mph - N/A   Overcast
9:28 AM 51.8 °F - 48.2 °F 88% 30.15 in 10.0 mi WNW 5.8 mph - N/A   Overcast
9:46 AM 53.6 °F - 48.2 °F 82% 30.15 in 10.0 mi WNW 4.6 mph - N/A   Mostly Cloudy
10:13 AM 55.4 °F - 50.0 °F 82% 30.15 in 10.0 mi WNW 5.8 mph - N/A   Scattered Clouds
10:34 AM 55.4 °F - 51.8 °F 88% 30.15 in 10.0 mi NW 8.1 mph - N/A   Unknown
10:55 AM 57.2 °F - 51.8 °F 82% 30.15 in 10.0 mi WNW 9.2 mph - N/A   Unknown
11:16 AM 59.0 °F - 51.8 °F 77% 30.15 in 10.0 mi NW 5.8 mph - N/A   Mostly Cloudy
11:37 AM 60.8 °F - 51.8 °F 72% 30.15 in 10.0 mi NW 9.2 mph - N/A   Mostly Cloudy
11:58 AM 62.6 °F - 50.0 °F 63% 30.14 in 10.0 mi NNW 5.8 mph - N/A   Mostly Cloudy
12:19 PM 62.6 °F - 48.2 °F 59% 30.14 in 10.0 mi NNW 6.9 mph - N/A   Mostly Cloudy
12:40 PM 62.6 °F - 48.2 °F 59% 30.14 in 10.0 mi NW 8.1 mph - N/A   Mostly Cloudy
1:01 PM 62.6 °F - 48.2 °F 59% 30.13 in 10.0 mi North 6.9 mph - N/A   Mostly Cloudy
1:22 PM 62.6 °F - 48.2 °F 59% 30.13 in 10.0 mi NNW 6.9 mph - N/A   Mostly Cloudy
1:46 PM 64.4 °F - 51.8 °F 64% 30.12 in 10.0 mi NW 11.5 mph 16.1 mph N/A   Scattered Clouds
2:07 PM 64.4 °F - 50.0 °F 59% 30.12 in 10.0 mi NNW 6.9 mph 16.1 mph N/A   Scattered Clouds
2:28 PM 66.2 °F - 51.8 °F 60% 30.11 in - NW 10.4 mph 20.7 mph N/A   Mostly Cloudy
2:49 PM 66.2 °F - 51.8 °F 60% 30.12 in 10.0 mi NW 10.4 mph 16.1 mph N/A   Mostly Cloudy
3:10 PM 64.4 °F - 51.8 °F 64% 30.12 in 10.0 mi North 9.2 mph - N/A   Mostly Cloudy
3:31 PM 64.4 °F - 51.8 °F 64% 30.12 in 10.0 mi NNW 8.1 mph - N/A   Mostly Cloudy
3:52 PM 64.4 °F - 51.8 °F 64% 30.12 in 10.0 mi NW 10.4 mph - N/A   Overcast
4:13 PM 64.4 °F - 51.8 °F 64% 30.13 in 10.0 mi North - - N/A   Overcast
4:55 PM 64.4 °F - 51.8 °F 64% 30.12 in 10.0 mi NW 6.9 mph - N/A   Mostly Cloudy
5:19 PM 64.4 °F - 51.8 °F 64% 30.12 in 10.0 mi NW 9.2 mph - N/A   Scattered Clouds
5:40 PM 64.4 °F - 53.6 °F 68% 30.13 in 10.0 mi WNW 9.2 mph - N/A   Clear
6:01 PM 64.4 °F - 53.6 °F 68% 30.13 in 10.0 mi WNW 6.9 mph - N/A   Clear
6:22 PM 62.6 °F - 51.8 °F 68% 30.14 in 10.0 mi WNW 9.2 mph - N/A   Scattered Clouds
6:43 PM 62.6 °F - 53.6 °F 72% 30.14 in 10.0 mi WNW 6.9 mph - N/A   Scattered Clouds
7:04 PM 60.8 °F - 51.8 °F 72% 30.15 in 10.0 mi West 6.9 mph - N/A   Clear
7:25 PM 59.0 °F - 53.6 °F 82% 30.14 in 10.0 mi West 5.8 mph - N/A   Clear
7:46 PM 59.0 °F - 53.6 °F 82% 30.15 in 10.0 mi West 8.1 mph - N/A   Clear
8:04 PM 59.0 °F - 53.6 °F 82% 30.15 in 10.0 mi West 8.1 mph - N/A   Clear
8:28 PM 59.0 °F - 53.6 °F 82% 30.16 in 10.0 mi West 8.1 mph - N/A   Clear
8:49 PM 57.2 °F - 53.6 °F 88% 30.16 in 10.0 mi WNW 8.1 mph - N/A   Clear
9:13 PM 57.2 °F - 53.6 °F 88% 30.16 in 10.0 mi WNW 5.8 mph - N/A   Clear
9:34 PM 57.2 °F - 51.8 °F 82% 30.16 in 10.0 mi WNW 6.9 mph - N/A   Clear
9:55 PM 57.2 °F - 51.8 °F 82% 30.16 in 10.0 mi WNW 6.9 mph - N/A   Clear
10:16 PM 57.2 °F - 51.8 °F 82% 30.16 in 10.0 mi WNW 6.9 mph - N/A   Clear
10:37 PM 57.2 °F - 51.8 °F 82% 30.16 in 10.0 mi NW 4.6 mph - N/A   Clear
10:58 PM 57.2 °F - 51.8 °F 82% 30.16 in 10.0 mi NW 4.6 mph - N/A   Clear
11:19 PM 57.2 °F - 51.8 °F 82% 30.16 in - NW 4.6 mph - N/A   Clear
11:40 PM 57.2 °F - 51.8 °F 82% 30.16 in 10.0 mi NW 5.8 mph - N/A   Clear